User: anonymous   Login
Location: ??
(35.5653°N, 139.6194°E)
Time: 12:05:35
(UTC+00:00)
Language:

Cosmos 2016 Rocket - Orbit

View from above orbital plane
View from above orbital plane
View from above satellite
View from above satellite

Ground track
Ground track

The orbit data is extracted from the following two-line orbital elements,

1 19922U 89028B   20028.61113789 +.00000071 +00000-0 +55091-4 0  9990
2 19922 082.9573 078.0217 0037979 089.6980 270.8530 13.77211418548488
Epoch (UTC): 28 January 2020 14:40:02
Eccentricity: 0.0037979
inclination: 82.9573°
perigee height: 946 km
apogee height: 1002 km
right ascension of ascending node: 78.0217°
argument of perigee: 89.6980°
revolutions per day: 13.77211418
mean anomaly at epoch: 270.8530°
orbit number at epoch: 54848

The dashed part of the orbit path shows where the satellite is in the earth's shadow,  

DLR